Location: Newark
(13.8117°N, 3.6025°W)
Time: 09:03:00
(UTC+00:00)

Vanguard 2 - Pass Details

Date: 25 August 2019
Orbit: 554 x 2937 km, 32.9° (Epoch: 23 September)

Event Time Altitude Azimuth Distance (km) Brightness Sun altitude
Rises 16:36:53 0° 308° (NW) 4,414 12.3 26.5°
Reaches altitude 10° 16:39:32 10° 314° (NW) 3,714 11.9 25.9°
Maximum altitude 16:49:33 51° 29° (NNE) 2,553 10.3 23.4°
Drops below altitude 10° 17:04:59 10° 101° (E) 5,567 11.4 19.7°
Sets 17:09:57 0° 106° (ESE) 6,727 11.7 18.5°
